Location: Landers
(34.2911°N, 116.3835°W)
Time: 11:56:51
(UTC-08:00)

Hubble Space Telescope - Visible Passes

Search period start: 02 December 2020 00:00
Search period end: 12 December 2020 00:00
Orbit: 536 x 540 km, 28.5° (Epoch: 01 December)

Date Brightness Start Highest point End Pass type
(mag) Time Alt. Az. Time Alt. Az. Time Alt. Az.
02 Dec 2.2 18:09:11 10° SW 18:12:39 27° SSE 18:13:33 24° SE visible
03 Dec 2.1 17:58:12 10° SW 18:01:48 30° S 18:03:24 22° SE visible
04 Dec 2.0 17:47:16 10° SW 17:50:57 32° S 17:53:14 19° ESE visible
04 Dec 3.8 19:28:02 10° WSW 19:28:34 13° WSW 19:28:34 13° WSW visible
05 Dec 2.0 17:36:22 10° WSW 17:40:07 34° S 17:43:06 14° ESE visible
05 Dec 3.5 19:17:15 10° WSW 19:18:26 17° WSW 19:18:26 17° WSW visible
06 Dec 2.0 17:25:29 10° WSW 17:29:16 36° S 17:33:00 10° ESE visible
06 Dec 3.1 19:06:29 10° WSW 19:08:20 21° SW 19:08:20 21° SW visible
07 Dec 2.0 17:14:37 10° WSW 17:18:26 36° S 17:22:13 10° ESE visible
07 Dec 2.7 18:55:44 10° WSW 18:58:18 24° SW 18:58:18 24° SW visible
08 Dec 2.1 17:03:47 10° WSW 17:07:35 36° S 17:11:23 10° ESE visible
08 Dec 2.6 18:45:02 10° WSW 18:48:20 24° SSW 18:48:20 24° SSW visible
09 Dec 2.8 18:34:23 10° WSW 18:37:29 21° SSW 18:38:28 19° S visible
10 Dec 3.2 18:23:48 10° WSW 18:26:35 18° SSW 18:28:43 12° SSE visible
11 Dec 3.4 18:13:22 10° SW 18:15:41 15° SSW 18:18:01 10° SSE visible
